Weather History for Deadhorse, AK

Change the Weather History Date:

Tuesday, May 7, 2013

  Actual Average Record
Temperature  
Mean Temperature 13 °F -  
Max Temperature 23 °F 20 °F 34 °F (2002)
Min Temperature 3 °F 8 °F -6 °F (1992)
Degree Days  
Heating Degree Days 52    
Moisture  
Dew Point 11 °F    
Average Humidity 81    
Maximum Humidity 85    
Minimum Humidity 77    
Precipitation  
Precipitation 0.00 in - - ()
Sea Level Pressure  
Sea Level Pressure 30.13 in    
Wind  
Wind Speed 14 mph (SW)    
Max Wind Speed 17 mph    
Max Gust Speed -    
Visibility 10 miles    
Events      
Averages and records for this station are not official NWS values.
T = Trace of Precipitation, MM = Missing Value Source: NWS Daily Summary

Daily Weather History Graph

Daily Weather History Graph

Search for Another Location

Airport:

Trip Planner

Search our weather history database for the weather conditions in past years. The results will help you decide how hot, cold, wet, or windy it might be!

Date:

Astronomy

May. 07, 2013 Rise Set
Actual Time 3:38 AM AKDT 12:08 AM AKDT
Civil Twilight Sun does not rise Sun does not rise
Nautical Twilight Sun does not rise Sun does not rise
Astronomical Twilight Sun does not rise Sun does not rise
Moon 4:05 AM AKDT (5/7) 8:53 PM AKDT (5/7)
Length of Visible Light 24h 00m
Length of Day
20h 29m
Waning Crescent, 5% of the Moon is Illuminated
May 7
Waning Crescent
May 9
New
May 17
First Quarter
May 24
Full
May 31
Last Quarter

Hourly Weather History & Observations

Time (AKDT) Temp. Windchill Dew Point Humidity Pressure Visibility Wind Dir Wind Speed Gust Speed Precip Events Conditions
12:53 AM 14.0 °F -1.4 °F 9.0 °F 80% 30.13 in 10.0 mi SW 15.0 mph - N/A   Mostly Cloudy
1:53 AM 10.9 °F -5.4 °F 7.0 °F 84% 30.13 in 10.0 mi SW 15.0 mph - N/A   Mostly Cloudy
2:53 AM 8.1 °F -9.0 °F 3.0 °F 80% 30.13 in 10.0 mi SW 15.0 mph - N/A   Scattered Clouds
3:53 AM 5.0 °F -12.3 °F 1.0 °F 84% 30.13 in 10.0 mi SW 13.8 mph - N/A   Scattered Clouds
4:53 AM 3.9 °F -14.3 °F -0.0 °F 84% 30.13 in 10.0 mi SW 15.0 mph - N/A   Scattered Clouds
5:53 AM 5.0 °F -13.6 °F 1.0 °F 84% 30.13 in 10.0 mi SW 16.1 mph - N/A   Scattered Clouds
6:53 AM 7.0 °F -10.4 °F 3.0 °F 84% 30.13 in 10.0 mi SW 15.0 mph - N/A   Partly Cloudy
7:53 AM 9.0 °F -8.5 °F 3.9 °F 80% 30.13 in 10.0 mi SW 16.1 mph - N/A   Partly Cloudy
8:53 AM 12.9 °F -2.8 °F 8.1 °F 81% 30.13 in 10.0 mi SW 15.0 mph - N/A   Scattered Clouds
9:53 AM 16.0 °F 2.3 °F 10.0 °F 77% 30.13 in 10.0 mi SW 12.7 mph - N/A   Clear
10:53 AM 16.0 °F 2.3 °F 10.9 °F 81% 30.13 in 10.0 mi SW 12.7 mph - N/A   Clear
11:53 AM 17.1 °F 2.0 °F 10.9 °F 77% 30.13 in 10.0 mi SW 16.1 mph - N/A   Scattered Clouds
12:53 PM 19.9 °F 6.7 °F 14.0 °F 78% 30.14 in 10.0 mi SW 13.8 mph - N/A   Scattered Clouds
1:53 PM 21.9 °F 9.8 °F 17.1 °F 82% 30.14 in 10.0 mi SW 12.7 mph - N/A   Scattered Clouds
2:53 PM 23.0 °F 11.1 °F 18.0 °F 81% 30.14 in 10.0 mi SW 12.7 mph - N/A   Partly Cloudy
3:53 PM 23.0 °F 11.7 °F 18.0 °F 81% 30.14 in 10.0 mi SW 11.5 mph - N/A   Partly Cloudy
4:53 PM 23.0 °F 12.4 °F 19.0 °F 85% 30.14 in 10.0 mi SSW 10.4 mph - N/A   Partly Cloudy
5:53 PM 23.0 °F 12.4 °F 19.0 °F 85% 30.14 in 10.0 mi SW 10.4 mph - N/A   Partly Cloudy
6:53 PM 21.9 °F 10.4 °F 17.1 °F 82% 30.14 in 10.0 mi WSW 11.5 mph - N/A   Scattered Clouds
7:53 PM 23.0 °F 9.6 °F 17.1 °F 78% 30.14 in 10.0 mi SW 16.1 mph - N/A   Scattered Clouds
8:53 PM 21.9 °F 9.2 °F 17.1 °F 82% 30.14 in 10.0 mi SW 13.8 mph - N/A   Mostly Cloudy
9:53 PM 19.9 °F 7.3 °F 15.1 °F 81% 30.13 in 10.0 mi SSW 12.7 mph - N/A   Mostly Cloudy
10:53 PM 19.0 °F 5.0 °F 14.0 °F 81% 30.14 in 10.0 mi SW 15.0 mph - N/A   Mostly Cloudy
11:53 PM 16.0 °F 0.1 °F 12.0 °F 84% 30.14 in 10.0 mi SW 17.3 mph - N/A   Mostly Cloudy